Regional Weather Roundup
Issued by NWS Nashville, TN

Home | Current Version | Previous Version | Text Only | Print | Product List | Glossary On
Versions: 1 2 3 4 5 6 7 8 9 10 11 12 13 14 15 16 17 18 19 20 21 22 23 24 25 26 27 28 29 30 31 32 33 34 35 36 37 38 39 40 41 42 43 44 45 46 47 48 49 50
000
ASUS44 KOHX 061715
RWROHX
MIDDLE TENNESSEE HOURLY WEATHER ROUNDUP
NATIONAL WEATHER SERVICE NASHVILLE TN
1100 AM CST FRI MAR 06 2015

NOTE: "FAIR" INDICATES FEW OR NO CLOUDS BELOW 12,000 FEET WITH
NO SIGNIFICANT WEATHER AND/OR OBSTRUCTIONS TO VISIBILITY.

* THESE REPORTS ARE NOT UNDER NWS QUALITY CONTROL AND MAY NOT
  REPORT WEATHER SUCH AS PRECIPITATION AND FOG.


TNZ005>011-023>034-057-059-062>066-078-080-061800
...NORTHERN MIDDLE TENNESSEE...

CITY           SKY/WX    TMP DP  RH WIND       PRES   REMARKS
CLARKSVILLE    SUNNY     23  11  60 NE3       30.59F
CROSSVILLE     SUNNY     26  15  63 CALM      30.45F
GALLATIN         N/A     26  15  63 CALM      30.58F
DICKSON        SUNNY     25  10  54 CALM      30.55F
LIVINGSTON     SUNNY     25  16  68 CALM      30.49F
NASHVILLE      SUNNY     28  15  58 CALM      30.59S
PORTLAND       SUNNY     21  10  63 CALM      30.56S
SMYRNA         SUNNY     26  15  63 CALM      30.59S
SPARTA         SUNNY     27  18  69 CALM      30.51S
$$
TNZ056-058-060-061-075>077-079-093>097-061800
...SOUTHERN MIDDLE TENNESSEE...

CITY           SKY/WX    TMP DP  RH WIND       PRES   REMARKS
COLUMBIA         N/A     27  18  69 CALM      30.56S
LEWISBURG      SUNNY     25  14  62 N3        30.56F
MCMINNVILLE    SUNNY     27  18  69 N3        30.51S
MURFREESBORO   SUNNY     26  17  68 N3        30.57F
SHELBYVILLE    SUNNY     27  19  74 NW3       30.56S
TULLAHOMA      SUNNY     27  12  54 NE3         N/A
WINCHESTER     SUNNY     27  18  69 VRB5      30.52S WCI  21
$$


...KEY TO REMARKS...
VSB - VISIBILITY IN MILES
WCI - WIND CHILL INDEX
HX  - HEAT INDEX



USA.gov is the U.S. government's official web portal to all federal, state and local government web resources and services.